Location: Munkebjergskolens Observatorium
(55.3864°N, 10.3987°E)
Time: 21:12:01
(UTC+01:00)

DELTA 1 DEB - Pass Details

Date: 10 December 2023
Orbit: 783 x 826 km, 98.9° (Epoch: 04 March)

Event Time Altitude Azimuth Distance (km) Brightness Sun altitude
Rises 16:36:43 0° 131° (SE) 3,311 ? -6.4°
Reaches altitude 10° 16:39:11 10° 122° (ESE) 2,391 ? -6.7°
Maximum altitude 16:43:56 35° 59° (ENE) 1,300 ? -7.3°
Drops below altitude 10° 16:48:45 10° 355° (N) 2,429 ? -7.8°
Sets 16:51:16 0° 347° (NNW) 3,371 ? -8.2°
